START_TIME,STEP,MOV.,M6,t_acc.,M7,t_acc.,M19,t_acc.,H36,t_acc.
1979-07-27 03:00:26.390 ,1,0,0.,12.0,0.,12.0,0.,12.0,0.,12.0
1979-07-27 03:00:38.390 ,1,0,0.,12.0,0.,12.0,0.,12.0,0.,12.0
1979-07-27 03:00:50.390 ,2,1,0.,12.0,0.,12.0,0.,12.0,0.,12.0
1979-07-27 03:01:02.390 ,2,1,0.,12.0,0.,12.0,0.,12.0,0.,12.0
1979-07-27 03:01:14.390 ,2,0,0.,12.0,0.,12.0,0.,12.0,0.,12.0
1979-07-27 03:01:26.390 ,2,0,0.,12.0,0.,12.0,0.,12.0,0.,12.0
1979-07-27 03:01:38.390 ,3,1,0.,12.0,0.,12.0,0.,12.0,0.,12.0
1979-07-27 03:01:50.390 ,3,1,0.,12.0,0.,12.0,0.,12.0,0.,12.0
1979-07-27 03:02:02.390 ,3,0,0.,12.0,0.,12.0,0.,12.0,0.,12.0
1979-07-27 03:02:14.390 ,3,0,0.,12.0,0.,12.0,0.,12.0,0.,12.0
1979-07-27 03:02:26.390 ,4,1,0.,12.0,0.,12.0,0.,12.0,0.,12.0
1979-07-27 03:02:38.390 ,4,1,0.,12.0,0.,12.0,0.,12.0,0.,12.0
1979-07-27 03:02:50.390 ,4,0,0.,12.0,0.,12.0,0.,12.0,0.,12.0
1979-07-27 03:03:02.390 ,4,0,0.,12.0,0.,12.0,0.,12.0,0.,12.0
1979-07-27 03:03:14.390 ,5,1,0.,12.0,0.,12.0,0.,12.0,0.,12.0
1979-07-27 03:03:26.390 ,5,1,0.,12.0,0.,12.0,0.,12.0,0.,12.0
1979-07-27 03:03:38.390 ,5,0,0.,12.0,0.,12.0,0.,12.0,0.,12.0
1979-07-27 03:03:50.390 ,5,0,0.,12.0,0.,12.0,0.,12.0,0.,12.0
1979-07-27 03:04:02.390 ,6,1,0.,12.0,0.,12.0,0.,12.0,0.,12.0
1979-07-27 03:04:14.390 ,6,1,0.,12.0,0.,12.0,0.,12.0,0.,12.0
1979-07-27 03:04:26.390 ,6,0,0.,12.0,0.,12.0,0.,12.0,0.,12.0
1979-07-27 03:04:38.390 ,6,0,0.,12.0,0.,12.0,0.,12.0,0.,12.0
1979-07-27 03:04:50.390 ,7,1,0.,12.0,0.,12.0,0.,12.0,0.,12.0
1979-07-27 03:05:02.390 ,7,1,0.,12.0,0.,12.0,0.,12.0,0.,12.0
1979-07-27 03:05:14.390 ,7,0,0.,12.0,0.,12.0,0.,12.0,0.,12.0
1979-07-27 03:05:26.390 ,7,0,0.,12.0,0.,12.0,0.,12.0,0.,12.0
1979-07-27 03:05:38.390 ,7,1,0.,12.0,0.,12.0,0.,12.0,0.,12.0
1979-07-27 03:05:50.390 ,7,1,0.,12.0,0.,12.0,0.,12.0,0.,12.0
1979-07-27 03:06:02.390 ,7,0,0.,12.0,0.,12.0,0.,12.0,0.,12.0
1979-07-27 03:06:14.390 ,7,0,0.,12.0,0.,12.0,0.,12.0,0.,12.0
1979-07-27 03:06:26.390 ,6,1,0.,12.0,0.,12.0,0.,12.0,0.,12.0
1979-07-27 03:06:38.390 ,6,1,0.,12.0,0.,12.0,0.,12.0,0.,12.0
1979-07-27 03:06:50.390 ,6,0,0.,12.0,0.,12.0,0.,12.0,0.,12.0
1979-07-27 03:07:02.390 ,6,0,0.,12.0,0.,12.0,0.,12.0,0.,12.0
1979-07-27 03:07:14.390 ,5,1,0.,12.0,0.,12.0,0.,12.0,0.,12.0
1979-07-27 03:07:26.390 ,5,1,0.,12.0,0.,12.0,0.,12.0,0.,12.0
1979-07-27 03:07:38.390 ,5,0,0.,12.0,0.,12.0,0.,12.0,0.,12.0
1979-07-27 03:07:50.390 ,5,0,0.,12.0,0.,12.0,0.,12.0,0.,12.0
1979-07-27 03:08:02.390 ,4,1,0.,12.0,0.,12.0,0.,12.0,0.,12.0
1979-07-27 03:08:14.390 ,4,1,0.,12.0,0.,12.0,0.,12.0,0.,12.0
1979-07-27 03:08:26.390 ,4,0,0.,12.0,0.,12.0,0.,12.0,0.,12.0
1979-07-27 03:08:38.390 ,4,0,0.,12.0,0.,12.0,0.,12.0,0.,12.0
1979-07-27 03:08:50.390 ,3,1,0.,12.0,0.,12.0,0.,12.0,0.,12.0
1979-07-27 03:09:02.390 ,3,1,0.,12.0,0.,12.0,0.,12.0,0.,12.0
1979-07-27 03:09:14.390 ,3,0,0.,12.0,0.,12.0,0.,12.0,0.,12.0
1979-07-27 03:09:26.390 ,3,0,0.,12.0,0.,12.0,0.,12.0,0.,12.0
1979-07-27 03:09:38.390 ,2,1,0.,12.0,0.,12.0,0.,12.0,0.,12.0
1979-07-27 03:09:50.390 ,2,1,0.,12.0,0.,12.0,0.,12.0,0.,12.0
1979-07-27 03:10:02.390 ,2,0,0.,12.0,0.,12.0,0.,12.0,0.,12.0
1979-07-27 03:10:14.390 ,2,0,0.,12.0,0.,12.0,0.,12.0,0.,12.0
1979-07-27 03:10:26.390 ,1,1,0.,12.0,0.,12.0,0.,12.0,0.,12.0
1979-07-27 03:10:38.390 ,1,1,0.,12.0,0.,12.0,0.,12.0,0.,12.0
1979-07-27 03:10:50.390 ,1,0,0.,12.0,0.,12.0,0.,12.0,0.,12.0
1979-07-27 03:11:02.390 ,1,0,0.,12.0,0.,12.0,0.,12.0,0.,12.0
1979-07-27 03:11:14.390 ,0,1,0.,12.0,0.,12.0,0.,12.0,0.,12.0
1979-07-27 03:11:26.390 ,0,1,0.,12.0,0.,12.0,0.,12.0,0.,12.0
1979-07-27 03:11:38.390 ,0,0,0.,12.0,0.,12.0,0.,12.0,0.,12.0
1979-07-27 03:11:50.390 ,0,0,0.,12.0,0.,12.0,0.,12.0,0.,12.0
1979-07-27 03:12:02.390 ,0,1,0.,12.0,0.,12.0,0.,12.0,0.,12.0
1979-07-27 03:12:14.390 ,0,1,0.,12.0,0.,12.0,0.,12.0,0.,12.0
1979-07-27 03:12:26.390 ,0,0,0.,12.0,0.,12.0,0.,12.0,0.,12.0
1979-07-27 03:12:38.390 ,0,0,0.,12.0,0.,12.0,0.,12.0,0.,12.0
1979-07-27 03:12:50.390 ,1,1,0.,12.0,0.,12.0,0.,12.0,0.,12.0
1979-07-27 03:13:02.390 ,1,1,0.,12.0,0.,12.0,0.,12.0,0.,12.0
1979-07-27 03:13:14.390 ,1,0,0.,12.0,0.,12.0,0.,12.0,0.,12.0
1979-07-27 03:13:26.390 ,1,0,0.,12.0,0.,12.0,0.,12.0,0.,12.0
1979-07-27 03:13:38.390 ,2,1,0.,12.0,0.,12.0,0.,12.0,0.,12.0
1979-07-27 03:13:50.390 ,2,1,0.,12.0,0.,12.0,0.,12.0,0.,12.0
1979-07-27 03:14:02.390 ,2,0,0.,12.0,0.,12.0,0.,12.0,0.,12.0
1979-07-27 03:14:14.390 ,2,0,0.,12.0,0.,12.0,0.,12.0,0.,12.0
1979-07-27 03:14:26.390 ,3,1,0.,12.0,0.,12.0,0.,12.0,0.,12.0
1979-07-27 03:14:38.390 ,3,1,0.,12.0,0.,12.0,0.,12.0,0.,12.0
1979-07-27 03:14:50.390 ,3,0,0.,12.0,0.,12.0,0.,12.0,0.,12.0
1979-07-27 03:15:02.390 ,3,0,0.,12.0,0.,12.0,0.,12.0,0.,12.0
1979-07-27 03:15:14.390 ,4,1,0.,12.0,0.,12.0,0.,12.0,0.,12.0
1979-07-27 03:15:26.390 ,4,1,0.,12.0,0.,12.0,0.,12.0,0.,12.0
1979-07-27 03:15:38.390 ,4,0,0.,12.0,0.,12.0,0.,12.0,0.,12.0
1979-07-27 03:15:50.390 ,4,0,0.,12.0,0.,12.0,0.,12.0,0.,12.0
1979-07-27 03:16:02.390 ,5,1,0.,12.0,0.,12.0,0.,12.0,0.,12.0
1979-07-27 03:16:14.390 ,5,1,0.,12.0,0.,12.0,0.,12.0,0.,12.0
1979-07-27 03:16:26.390 ,5,0,0.,12.0,0.,12.0,0.,12.0,0.,12.0
1979-07-27 03:16:38.390 ,5,0,0.,12.0,0.,12.0,0.,12.0,0.,12.0
1979-07-27 03:16:50.390 ,6,1,0.,12.0,0.,12.0,0.,12.0,0.,12.0
1979-07-27 03:17:02.390 ,6,1,0.,12.0,0.,12.0,0.,12.0,0.,12.0
1979-07-27 03:17:14.390 ,6,0,0.,12.0,0.,12.0,0.,12.0,0.,12.0
1979-07-27 03:17:26.390 ,6,0,0.,12.0,0.,12.0,0.,12.0,0.,12.0
1979-07-27 03:17:38.390 ,7,1,0.,12.0,0.,12.0,0.,12.0,0.,12.0
1979-07-27 03:17:50.390 ,7,1,0.,12.0,0.,12.0,0.,12.0,0.,12.0
1979-07-27 03:18:02.390 ,7,0,0.,12.0,0.,12.0,0.,12.0,0.,12.0
1979-07-27 03:18:14.390 ,7,0,0.,12.0,0.,12.0,0.,12.0,0.,12.0
1979-07-27 03:18:26.390 ,7,1,0.,12.0,0.,12.0,0.,12.0,0.,12.0
1979-07-27 03:18:38.390 ,7,1,0.,12.0,0.,12.0,0.,12.0,0.,12.0
1979-07-27 03:18:50.390 ,7,0,0.,12.0,0.,12.0,0.,12.0,0.,12.0
1979-07-27 03:19:02.390 ,7,0,0.,12.0,0.,12.0,0.,12.0,0.,12.0
1979-07-27 03:19:14.390 ,6,1,0.,12.0,0.,12.0,0.,12.0,0.,12.0
1979-07-27 03:19:26.390 ,6,1,0.,12.0,0.,12.0,0.,12.0,0.,12.0
1979-07-27 03:19:38.390 ,6,0,0.,12.0,0.,12.0,0.,12.0,0.,12.0
1979-07-27 03:19:50.390 ,6,0,0.,12.0,0.,12.0,0.,12.0,0.,12.0
1979-07-27 03:20:02.390 ,5,1,0.,12.0,0.,12.0,0.,12.0,0.,12.0
1979-07-27 03:20:14.390 ,5,1,0.,12.0,0.,12.0,0.,12.0,0.,12.0
1979-07-27 03:20:26.390 ,5,0,0.,12.0,0.,12.0,0.,12.0,0.,12.0
1979-07-27 03:20:38.390 ,5,0,0.,12.0,0.,12.0,0.,12.0,0.,12.0
1979-07-27 03:20:50.390 ,4,1,0.,12.0,0.,12.0,0.,12.0,0.,12.0
1979-07-27 03:21:02.390 ,4,1,0.,12.0,0.,12.0,0.,12.0,0.,12.0
1979-07-27 03:21:14.390 ,4,0,0.,12.0,0.,12.0,0.,12.0,0.,12.0
1979-07-27 03:21:26.390 ,4,0,0.,12.0,0.,12.0,0.,12.0,0.,12.0
1979-07-27 03:21:38.390 ,3,1,0.,12.0,0.,12.0,0.,12.0,0.,12.0
1979-07-27 03:21:50.390 ,3,1,0.,12.0,0.,12.0,0.,12.0,0.,12.0
1979-07-27 03:22:02.390 ,3,0,0.,12.0,0.,12.0,0.,12.0,0.,12.0
1979-07-27 03:22:14.390 ,3,0,0.,12.0,0.,12.0,0.,12.0,0.,12.0
1979-07-27 03:22:26.390 ,2,1,0.,12.0,0.,12.0,0.,12.0,0.,12.0
1979-07-27 03:22:38.390 ,2,1,0.,12.0,0.,12.0,0.,12.0,0.,12.0
1979-07-27 03:22:50.390 ,2,0,0.,12.0,0.,12.0,0.,12.0,0.,12.0
1979-07-27 03:23:02.390 ,2,0,0.,12.0,0.,12.0,0.,12.0,0.,12.0
1979-07-27 03:23:14.390 ,1,1,0.,12.0,0.,12.0,0.,12.0,0.,12.0
1979-07-27 03:23:26.390 ,1,1,0.,12.0,0.,12.0,0.,12.0,0.,12.0
1979-07-27 03:23:38.390 ,1,0,0.,12.0,0.,12.0,0.,12.0,0.,12.0
1979-07-27 03:23:50.390 ,1,0,0.,12.0,0.,12.0,0.,12.0,0.,12.0
1979-07-27 03:24:02.390 ,0,1,0.,12.0,0.,12.0,0.,12.0,0.,12.0
1979-07-27 03:24:14.390 ,0,1,0.,12.0,0.,12.0,0.,12.0,0.,12.0
1979-07-27 03:24:26.390 ,0,0,0.,12.0,0.,12.0,0.,12.0,0.,12.0
1979-07-27 03:24:38.390 ,0,0,0.,12.0,0.,12.0,0.,12.0,0.,12.0
1979-07-27 03:24:50.390 ,0,1,0.,12.0,0.,12.0,0.,12.0,0.,12.0
1979-07-27 03:25:02.390 ,0,1,0.,12.0,0.,12.0,0.,12.0,0.,12.0
1979-07-27 03:25:14.390 ,0,0,0.,12.0,0.,12.0,0.,12.0,0.,12.0
1979-07-27 03:25:26.390 ,0,0,0.,12.0,0.,12.0,0.,12.0,0.,12.0
1979-07-27 03:25:38.390 ,1,1,0.,12.0,0.,12.0,0.,12.0,0.,12.0
1979-07-27 03:25:50.390 ,1,1,0.,12.0,0.,12.0,0.,12.0,0.,12.0
1979-07-27 03:26:02.390 ,1,0,0.,12.0,0.,12.0,0.,12.0,0.,12.0
1979-07-27 03:26:14.390 ,1,0,0.,12.0,0.,12.0,0.,12.0,0.,12.0
1979-07-27 03:26:26.390 ,2,1,0.,12.0,0.,12.0,0.,12.0,0.,12.0
1979-07-27 03:26:38.390 ,2,1,0.,12.0,0.,12.0,0.,12.0,0.,12.0
1979-07-27 03:26:50.390 ,2,0,0.,12.0,0.,12.0,0.,12.0,0.,12.0
1979-07-27 03:27:02.390 ,2,0,0.,12.0,0.,12.0,0.,12.0,0.,12.0
1979-07-27 03:27:14.390 ,3,1,0.,12.0,0.,12.0,0.,12.0,0.,12.0
1979-07-27 03:27:26.390 ,3,1,0.,12.0,0.,12.0,0.,12.0,0.,12.0
1979-07-27 03:27:38.390 ,3,0,0.,12.0,0.,12.0,0.,12.0,0.,12.0
1979-07-27 03:27:50.390 ,3,0,0.,12.0,0.,12.0,0.,12.0,0.,12.0
1979-07-27 03:28:02.390 ,4,1,0.,12.0,0.,12.0,0.,12.0,0.,12.0
1979-07-27 03:28:14.390 ,4,1,0.,12.0,0.,12.0,0.,12.0,0.,12.0
1979-07-27 03:28:26.390 ,4,0,0.,12.0,0.,12.0,0.,12.0,0.,12.0
1979-07-27 03:28:38.390 ,4,0,0.,12.0,0.,12.0,0.,12.0,0.,12.0
1979-07-27 03:28:50.390 ,5,1,0.,12.0,0.,12.0,0.,12.0,0.,12.0
1979-07-27 03:29:02.390 ,5,1,0.,12.0,0.,12.0,0.,12.0,0.,12.0
1979-07-27 03:29:14.390 ,5,0,0.,12.0,0.,12.0,0.,12.0,0.,12.0
1979-07-27 03:29:26.390 ,5,0,0.,12.0,0.,12.0,0.,12.0,0.,12.0
1979-07-27 03:29:38.390 ,6,1,0.,12.0,0.,12.0,0.,12.0,0.,12.0
1979-07-27 03:29:50.390 ,6,1,0.,12.0,0.,12.0,0.,12.0,0.,12.0
1979-07-27 03:30:02.390 ,6,0,0.,12.0,0.,12.0,0.,12.0,0.,12.0
1979-07-27 03:30:14.390 ,6,0,0.,12.0,0.,12.0,0.,12.0,0.,12.0
1979-07-27 03:30:26.390 ,7,0,0.,12.0,0.,12.0,0.,12.0,0.,12.0
1979-07-27 03:30:38.390 ,7,0,0.,12.0,0.,12.0,0.,12.0,0.,12.0
1979-07-27 03:30:50.390 ,7,0,0.,12.0,0.,12.0,0.,12.0,0.,12.0
1979-07-27 03:31:02.390 ,7,0,0.,12.0,0.,12.0,0.,12.0,0.,12.0
1979-07-27 03:31:14.390 ,4,1,0.,12.0,0.,12.0,0.,12.0,0.,12.0
1979-07-27 03:31:26.390 ,4,1,0.,12.0,0.,12.0,0.,12.0,0.,12.0
1979-07-27 03:31:38.390 ,0,1,0.,12.0,0.,12.0,0.,12.0,0.,12.0
1979-07-27 03:31:50.390 ,0,1,0.,12.0,0.,12.0,0.,12.0,0.,12.0
1979-07-27 03:32:02.390 ,3,1,0.,12.0,0.,12.0,0.,12.0,0.,12.0
1979-07-27 03:32:14.390 ,3,1,0.,12.0,0.,12.0,0.,12.0,0.,12.0
1979-07-27 03:32:26.390 ,7,1,0.,12.0,0.,12.0,0.,12.0,0.,12.0
1979-07-27 03:32:38.390 ,7,1,0.,12.0,0.,12.0,0.,12.0,0.,12.0
1979-07-27 03:32:50.390 ,4,1,,0,,0,,0,,0
1979-07-27 03:33:02.390 ,4,1,0.,12.0,0.,12.0,0.,12.0,0.,12.0
1979-07-27 03:33:14.390 ,0,1,0.,12.0,0.,12.0,0.,12.0,0.,12.0
1979-07-27 03:33:26.390 ,0,1,0.,12.0,0.,12.0,0.,12.0,0.,12.0
1979-07-27 03:33:38.390 ,3,1,0.,12.0,0.,12.0,0.,12.0,0.,12.0
1979-07-27 03:33:50.390 ,3,1,0.,12.0,0.,12.0,0.,12.0,0.,12.0
1979-07-27 03:34:02.390 ,7,1,0.,12.0,0.,12.0,0.,12.0,0.,12.0
1979-07-27 03:34:14.390 ,7,1,0.,12.0,0.,12.0,0.,12.0,0.,12.0
1979-07-27 03:34:26.390 ,4,1,0.,12.0,0.,12.0,0.,12.0,0.,12.0
1979-07-27 03:34:38.390 ,4,1,0.,12.0,0.,12.0,0.,12.0,0.,12.0
1979-07-27 03:34:50.390 ,0,1,0.,12.0,0.,12.0,0.,12.0,0.,12.0
1979-07-27 03:35:02.390 ,0,1,0.,12.0,0.,12.0,0.,12.0,0.,12.0
1979-07-27 03:35:14.390 ,3,1,0.,12.0,0.,12.0,0.,12.0,0.,12.0
1979-07-27 03:35:26.390 ,3,1,0.,12.0,0.,12.0,0.,12.0,0.,12.0
1979-07-27 03:35:38.390 ,7,1,0.,12.0,0.,12.0,0.,12.0,0.,12.0
1979-07-27 03:35:50.390 ,7,1,0.,12.0,0.,12.0,0.,12.0,0.,12.0
1979-07-27 03:36:02.390 ,4,1,0.,12.0,0.,12.0,0.,12.0,0.,12.0
1979-07-27 03:36:14.390 ,4,1,0.,12.0,0.,12.0,0.,12.0,0.,12.0
1979-07-27 03:36:26.390 ,0,1,0.,12.0,0.,12.0,0.,12.0,0.,12.0
1979-07-27 03:36:38.390 ,0,1,0.,12.0,0.,12.0,0.,12.0,0.,12.0
1979-07-27 03:36:50.390 ,3,1,0.,12.0,0.,12.0,0.,12.0,0.,12.0
1979-07-27 03:37:02.390 ,3,1,0.,12.0,0.,12.0,0.,12.0,0.,12.0
1979-07-27 03:37:14.390 ,7,1,0.,12.0,0.,12.0,0.,12.0,0.,12.0
1979-07-27 03:37:26.390 ,7,1,0.,12.0,0.,12.0,0.,12.0,0.,12.0
1979-07-27 03:37:38.390 ,4,1,0.,12.0,0.,12.0,0.,12.0,0.,12.0
1979-07-27 03:37:50.390 ,4,1,0.,12.0,0.,12.0,0.,12.0,0.,12.0
1979-07-27 03:38:02.390 ,0,1,0.,12.0,0.,12.0,0.,12.0,0.,12.0
1979-07-27 03:38:14.390 ,0,1,0.,12.0,0.,12.0,0.,12.0,0.,12.0
1979-07-27 03:38:26.390 ,3,1,0.,12.0,0.,12.0,0.,12.0,0.,12.0
1979-07-27 03:38:38.390 ,3,1,0.,12.0,0.,12.0,0.,12.0,0.,12.0
1979-07-27 03:38:50.390 ,7,1,0.,12.0,0.,12.0,0.,12.0,0.,12.0
1979-07-27 03:39:02.390 ,7,1,0.,12.0,0.,12.0,0.,12.0,0.,12.0
1979-07-27 03:39:14.390 ,4,1,0.,12.0,0.,12.0,0.,12.0,0.,12.0
1979-07-27 03:39:26.390 ,4,1,0.,12.0,0.,12.0,0.,12.0,0.,12.0
1979-07-27 03:39:38.390 ,0,1,0.,12.0,0.,12.0,0.,12.0,0.,12.0
1979-07-27 03:39:50.390 ,0,1,0.,12.0,0.,12.0,0.,12.0,0.,12.0
1979-07-27 03:40:02.390 ,3,1,0.,12.0,0.,12.0,0.,12.0,0.,12.0
1979-07-27 03:40:14.390 ,3,1,0.,12.0,0.,12.0,0.,12.0,0.,12.0
1979-07-27 03:40:26.390 ,7,1,0.,12.0,0.,12.0,0.,12.0,0.,12.0
1979-07-27 03:40:38.390 ,7,1,0.,12.0,0.,12.0,0.,12.0,0.,12.0
1979-07-27 03:40:50.390 ,4,1,0.,12.0,0.,12.0,0.,12.0,0.,12.0
1979-07-27 03:41:02.390 ,4,1,0.,12.0,0.,12.0,0.,12.0,0.,12.0
1979-07-27 03:41:14.390 ,0,1,0.,12.0,0.,12.0,0.,12.0,0.,12.0
1979-07-27 03:41:26.390 ,0,1,0.,12.0,0.,12.0,0.,12.0,0.,12.0
1979-07-27 03:41:38.390 ,0,0,0.,12.0,0.,12.0,0.,12.0,0.,12.0
1979-07-27 03:41:50.390 ,0,0,0.,12.0,0.,12.0,0.,12.0,0.,12.0
1979-07-27 03:42:02.390 ,0,0,0.,12.0,0.,12.0,0.,12.0,0.,12.0
1979-07-27 03:42:14.390 ,0,0,0.,12.0,0.,12.0,0.,12.0,0.,12.0
1979-07-27 03:42:26.380 ,5,1,0.,12.0,0.,12.0,0.,12.0,0.,12.0
1979-07-27 03:42:38.380 ,5,1,0.,12.0,0.,12.0,0.,12.0,0.,12.0
1979-07-27 03:42:50.380 ,5,0,0.,12.0,0.,12.0,0.,12.0,0.,12.0
1979-07-27 03:43:02.380 ,5,0,0.,12.0,0.,12.0,0.,12.0,0.,12.0
1979-07-27 03:43:14.380 ,4,1,0.,12.0,0.,12.0,0.,12.0,0.,12.0
1979-07-27 03:43:26.380 ,4,1,0.,12.0,0.,12.0,0.,12.0,0.,12.0
1979-07-27 03:43:38.380 ,4,0,0.,12.0,0.,12.0,0.,12.0,0.,12.0
1979-07-27 03:43:50.380 ,4,0,0.,12.0,0.,12.0,0.,12.0,0.,12.0
1979-07-27 03:44:02.380 ,3,1,0.,12.0,0.,12.0,0.,12.0,0.,12.0
1979-07-27 03:44:14.380 ,3,1,0.,12.0,0.,12.0,0.,12.0,0.,12.0
1979-07-27 03:44:26.380 ,3,0,0.,12.0,0.,12.0,0.,12.0,0.,12.0
1979-07-27 03:44:38.380 ,3,0,0.,12.0,0.,12.0,0.,12.0,0.,12.0
1979-07-27 03:44:50.380 ,2,1,0.,12.0,0.,12.0,0.,12.0,0.,12.0
1979-07-27 03:45:02.380 ,2,1,0.,12.0,0.,12.0,0.,12.0,0.,12.0
1979-07-27 03:45:14.380 ,2,0,0.,12.0,0.,12.0,0.,12.0,0.,12.0
1979-07-27 03:45:26.380 ,2,0,0.,12.0,0.,12.0,0.,12.0,0.,12.0
1979-07-27 03:45:38.380 ,0,0,0.,12.0,0.,12.0,0.,12.0,0.,12.0
1979-07-27 03:45:50.380 ,0,0,0.,12.0,0.,12.0,0.,12.0,0.,12.0
1979-07-27 03:46:02.380 ,0,0,0.,12.0,0.,12.0,0.,12.0,0.,12.0
1979-07-27 03:46:14.380 ,0,0,0.,12.0,0.,12.0,0.,12.0,0.,12.0
1979-07-27 03:46:26.380 ,0,1,0.,12.0,0.,12.0,0.,12.0,0.,12.0
1979-07-27 03:46:38.380 ,0,1,0.,12.0,0.,12.0,0.,12.0,0.,12.0
1979-07-27 03:46:50.380 ,0,0,0.,12.0,0.,12.0,0.,12.0,0.,12.0
1979-07-27 03:47:02.380 ,0,0,0.,12.0,0.,12.0,0.,12.0,0.,12.0
1979-07-27 03:47:14.380 ,0,1,0.,12.0,0.,12.0,0.,12.0,0.,12.0
1979-07-27 03:47:26.380 ,0,1,0.,12.0,0.,12.0,0.,12.0,0.,12.0
1979-07-27 03:47:38.380 ,0,0,0.,12.0,0.,12.0,0.,12.0,0.,12.0
1979-07-27 03:47:50.380 ,0,0,0.,12.0,0.,12.0,0.,12.0,0.,12.0
1979-07-27 03:48:02.380 ,1,1,0.,12.0,0.,12.0,0.,12.0,0.,12.0
1979-07-27 03:48:14.380 ,1,1,0.,12.0,0.,12.0,0.,12.0,0.,12.0
1979-07-27 03:48:26.380 ,1,0,0.,12.0,0.,12.0,0.,12.0,0.,12.0
1979-07-27 03:48:38.380 ,1,0,0.,12.0,0.,12.0,0.,12.0,0.,12.0
1979-07-27 03:48:50.380 ,2,1,0.,12.0,0.,12.0,0.,12.0,0.,12.0
1979-07-27 03:49:02.380 ,2,1,0.,12.0,0.,12.0,0.,12.0,0.,12.0
1979-07-27 03:49:14.380 ,2,0,0.,12.0,0.,12.0,0.,12.0,0.,12.0
1979-07-27 03:49:26.380 ,2,0,0.,12.0,0.,12.0,0.,12.0,0.,12.0
1979-07-27 03:49:38.380 ,3,1,0.,12.0,0.,12.0,0.,12.0,0.,12.0
1979-07-27 03:49:50.380 ,3,1,0.,12.0,0.,12.0,0.,12.0,0.,12.0
1979-07-27 03:50:02.380 ,3,0,0.,12.0,0.,12.0,0.,12.0,0.,12.0
1979-07-27 03:50:14.380 ,3,0,0.,12.0,0.,12.0,0.,12.0,0.,12.0
1979-07-27 03:50:26.380 ,4,1,0.,12.0,0.,12.0,0.,12.0,0.,12.0
1979-07-27 03:50:38.380 ,4,1,0.,12.0,0.,12.0,0.,12.0,0.,12.0
1979-07-27 03:50:50.380 ,4,0,0.,12.0,0.,12.0,0.,12.0,0.,12.0
1979-07-27 03:51:02.380 ,4,0,0.,12.0,0.,12.0,0.,12.0,0.,12.0
1979-07-27 03:51:14.380 ,5,1,0.,12.0,0.,12.0,0.,12.0,0.,12.0
1979-07-27 03:51:26.380 ,5,1,0.,12.0,0.,12.0,0.,12.0,0.,12.0
1979-07-27 03:51:38.380 ,5,0,0.,12.0,0.,12.0,0.,12.0,0.,12.0
1979-07-27 03:51:50.380 ,5,0,0.,12.0,0.,12.0,0.,12.0,0.,12.0
1979-07-27 03:52:02.380 ,6,1,0.,12.0,0.,12.0,0.,12.0,0.,12.0
1979-07-27 03:52:14.380 ,6,1,0.,12.0,0.,12.0,0.,12.0,0.,12.0
1979-07-27 03:52:26.380 ,6,0,0.,12.0,0.,12.0,0.,12.0,0.,12.0
1979-07-27 03:52:38.380 ,6,0,0.,12.0,0.,12.0,0.,12.0,0.,12.0
1979-07-27 03:52:50.380 ,7,1,0.,12.0,0.,12.0,0.,12.0,0.,12.0
1979-07-27 03:53:02.380 ,7,1,0.,12.0,0.,12.0,0.,12.0,0.,12.0
1979-07-27 03:53:14.380 ,7,0,0.,12.0,0.,12.0,0.,12.0,0.,12.0
1979-07-27 03:53:26.380 ,7,0,0.,12.0,0.,12.0,0.,12.0,0.,12.0
1979-07-27 03:53:38.380 ,7,1,0.,12.0,0.,12.0,0.,12.0,0.,12.0
1979-07-27 03:53:50.380 ,7,1,0.,12.0,0.,12.0,0.,12.0,0.,12.0
1979-07-27 03:54:02.380 ,7,0,0.,12.0,0.,12.0,0.,12.0,0.,12.0
1979-07-27 03:54:14.380 ,7,0,0.,12.0,0.,12.0,0.,12.0,0.,12.0
1979-07-27 03:54:26.380 ,6,1,0.,12.0,0.,12.0,0.,12.0,0.,12.0
1979-07-27 03:54:38.380 ,6,1,0.,12.0,0.,12.0,0.,12.0,0.,12.0
1979-07-27 03:54:50.380 ,0,0,0.,12.0,0.,12.0,0.,12.0,0.,12.0
1979-07-27 03:55:02.380 ,0,0,0.,12.0,0.,12.0,0.,12.0,0.,12.0
1979-07-27 03:55:14.380 ,5,1,0.,12.0,0.,12.0,0.,12.0,0.,12.0
1979-07-27 03:55:26.380 ,5,1,0.,12.0,0.,12.0,0.,12.0,0.,12.0
1979-07-27 03:55:38.380 ,5,0,0.,12.0,0.,12.0,0.,12.0,0.,12.0
1979-07-27 03:55:50.380 ,5,0,0.,12.0,0.,12.0,0.,12.0,0.,12.0
1979-07-27 03:56:02.380 ,4,1,0.,12.0,0.,12.0,0.,12.0,0.,12.0
1979-07-27 03:56:14.380 ,4,1,0.,12.0,0.,12.0,0.,12.0,0.,12.0
1979-07-27 03:56:26.380 ,4,0,0.,12.0,0.,12.0,0.,12.0,0.,12.0
1979-07-27 03:56:38.380 ,4,0,0.,12.0,0.,12.0,0.,12.0,0.,12.0
1979-07-27 03:56:50.380 ,3,1,0.,12.0,0.,12.0,0.,12.0,0.,12.0
1979-07-27 03:57:02.380 ,3,1,0.,12.0,0.,12.0,0.,12.0,0.,12.0
1979-07-27 03:57:14.380 ,3,0,0.,12.0,0.,12.0,0.,12.0,0.,12.0
1979-07-27 03:57:26.380 ,3,0,0.,12.0,0.,12.0,0.,12.0,0.,12.0
1979-07-27 03:57:38.380 ,2,1,0.,12.0,0.,12.0,0.,12.0,0.,12.0
1979-07-27 03:57:50.380 ,2,1,0.,12.0,0.,12.0,0.,12.0,0.,12.0
1979-07-27 03:58:02.380 ,2,0,0.,12.0,0.,12.0,0.,12.0,0.,12.0
1979-07-27 03:58:14.380 ,2,0,0.,12.0,0.,12.0,0.,12.0,0.,12.0
1979-07-27 03:58:26.380 ,1,1,0.,12.0,0.,12.0,0.,12.0,0.,12.0
1979-07-27 03:58:38.380 ,1,1,0.,12.0,0.,12.0,0.,12.0,0.,12.0
1979-07-27 03:58:50.380 ,1,0,0.,12.0,0.,12.0,0.,12.0,0.,12.0
1979-07-27 03:59:02.380 ,1,0,0.,12.0,0.,12.0,0.,12.0,0.,12.0
1979-07-27 03:59:14.380 ,0,1,0.,12.0,0.,12.0,0.,12.0,0.,12.0
1979-07-27 03:59:26.380 ,0,1,0.,12.0,0.,12.0,0.,12.0,0.,12.0
1979-07-27 03:59:38.380 ,0,0,0.,12.0,0.,12.0,0.,12.0,0.,12.0
1979-07-27 03:59:50.380 ,0,0,0.,12.0,0.,12.0,0.,12.0,0.,12.0
1979-07-27 04:00:02.380 ,0,1,0.,12.0,0.,12.0,0.,12.0,0.,12.0
1979-07-27 04:00:14.380 ,0,1,0.,12.0,0.,12.0,0.,12.0,0.,12.0
1979-07-27 04:00:26.380 ,0,0,0.,12.0,0.,12.0,0.,12.0,0.,12.0
1979-07-27 04:00:38.380 ,0,0,0.,12.0,0.,12.0,0.,12.0,0.,12.0
1979-07-27 04:00:50.380 ,1,1,0.,12.0,0.,12.0,0.,12.0,0.,12.0
1979-07-27 04:01:02.380 ,1,1,0.,12.0,0.,12.0,0.,12.0,0.,12.0
1979-07-27 04:01:14.380 ,1,0,0.,12.0,0.,12.0,0.,12.0,0.,12.0
1979-07-27 04:01:26.380 ,1,0,0.,12.0,0.,12.0,0.,12.0,0.,12.0
1979-07-27 04:01:38.380 ,2,1,0.,12.0,0.,12.0,0.,12.0,0.,12.0
1979-07-27 04:01:50.380 ,2,1,0.,12.0,0.,12.0,0.,12.0,0.,12.0
1979-07-27 04:02:02.380 ,2,0,0.,12.0,0.,12.0,0.,12.0,0.,12.0
1979-07-27 04:02:14.380 ,2,0,0.,12.0,0.,12.0,0.,12.0,0.,12.0
1979-07-27 04:02:26.380 ,3,1,0.,12.0,0.,12.0,0.,12.0,0.,12.0
1979-07-27 04:02:38.380 ,3,1,0.,12.0,0.,12.0,0.,12.0,0.,12.0
1979-07-27 04:02:50.380 ,3,0,0.,12.0,0.,12.0,0.,12.0,0.,12.0
1979-07-27 04:03:02.380 ,3,0,0.,12.0,0.,12.0,0.,12.0,0.,12.0
1979-07-27 04:03:14.380 ,4,1,0.,12.0,0.,12.0,0.,12.0,0.,12.0
1979-07-27 04:03:26.380 ,4,1,0.,12.0,0.,12.0,0.,12.0,0.,12.0
1979-07-27 04:03:38.380 ,4,0,0.,12.0,0.,12.0,0.,12.0,0.,12.0
1979-07-27 04:03:50.380 ,4,0,0.,12.0,0.,12.0,0.,12.0,0.,12.0
1979-07-27 04:04:02.380 ,5,1,0.,12.0,0.,12.0,0.,12.0,0.,12.0
1979-07-27 04:04:14.380 ,5,1,0.,12.0,0.,12.0,0.,12.0,0.,12.0
1979-07-27 04:04:26.380 ,5,0,0.,12.0,0.,12.0,0.,12.0,0.,12.0
1979-07-27 04:04:38.380 ,5,0,0.,12.0,0.,12.0,0.,12.0,0.,12.0
1979-07-27 04:04:50.380 ,6,1,0.,12.0,0.,12.0,0.,12.0,0.,12.0
1979-07-27 04:05:02.380 ,6,1,0.,12.0,0.,12.0,0.,12.0,0.,12.0
1979-07-27 04:05:14.380 ,6,0,0.,12.0,0.,12.0,0.,12.0,0.,12.0
1979-07-27 04:05:26.380 ,6,0,0.,12.0,0.,12.0,0.,12.0,0.,12.0
1979-07-27 04:05:38.380 ,7,1,0.,12.0,0.,12.0,0.,12.0,0.,12.0
1979-07-27 04:05:50.380 ,7,1,0.,12.0,0.,12.0,0.,12.0,0.,12.0
1979-07-27 04:06:02.380 ,7,0,0.,12.0,0.,12.0,0.,12.0,0.,12.0
1979-07-27 04:06:14.380 ,7,0,0.,12.0,0.,12.0,0.,12.0,0.,12.0
1979-07-27 04:06:26.380 ,7,1,0.,12.0,0.,12.0,0.,12.0,0.,12.0
1979-07-27 04:06:38.380 ,7,1,0.,12.0,0.,12.0,0.,12.0,0.,12.0
1979-07-27 04:06:50.380 ,7,0,0.,12.0,0.,12.0,0.,12.0,0.,12.0
1979-07-27 04:07:02.380 ,7,0,0.,12.0,0.,12.0,0.,12.0,0.,12.0
1979-07-27 04:07:14.380 ,6,1,0.,12.0,0.,12.0,0.,12.0,0.,12.0
1979-07-27 04:07:26.380 ,6,1,0.,12.0,0.,12.0,0.,12.0,0.,12.0
1979-07-27 04:07:38.380 ,6,0,0.,12.0,0.,12.0,0.,12.0,0.,12.0
1979-07-27 04:07:50.380 ,6,0,0.,12.0,0.,12.0,0.,12.0,0.,12.0
1979-07-27 04:08:02.380 ,5,1,0.,12.0,0.,12.0,0.,12.0,0.,12.0
1979-07-27 04:08:14.380 ,5,1,0.,12.0,0.,12.0,0.,12.0,0.,12.0
1979-07-27 04:08:26.380 ,5,0,0.,12.0,0.,12.0,0.,12.0,0.,12.0
1979-07-27 04:08:38.380 ,5,0,0.,12.0,0.,12.0,0.,12.0,0.,12.0
1979-07-27 04:08:50.380 ,4,1,0.,12.0,0.,12.0,0.,12.0,0.,12.0
1979-07-27 04:09:02.380 ,4,1,0.,12.0,0.,12.0,0.,12.0,0.,12.0
1979-07-27 04:09:14.380 ,4,0,0.,12.0,0.,12.0,0.,12.0,0.,12.0
1979-07-27 04:09:26.380 ,4,0,0.,12.0,0.,12.0,0.,12.0,0.,12.0
1979-07-27 04:09:38.380 ,3,1,0.,12.0,0.,12.0,0.,12.0,0.,12.0
1979-07-27 04:09:50.380 ,3,1,0.,12.0,0.,12.0,0.,12.0,0.,12.0
1979-07-27 04:10:02.380 ,3,0,0.,12.0,0.,12.0,0.,12.0,0.,12.0
1979-07-27 04:10:14.380 ,3,0,0.,12.0,0.,12.0,0.,12.0,0.,12.0
1979-07-27 04:10:26.380 ,2,1,0.,12.0,0.,12.0,0.,12.0,0.,12.0
1979-07-27 04:10:38.380 ,2,1,0.,12.0,0.,12.0,0.,12.0,0.,12.0
1979-07-27 04:10:50.380 ,2,0,0.,12.0,0.,12.0,0.,12.0,0.,12.0
1979-07-27 04:11:02.380 ,2,0,0.,12.0,0.,12.0,0.,12.0,0.,12.0
1979-07-27 04:11:14.380 ,1,1,0.,12.0,0.,12.0,0.,12.0,0.,12.0
1979-07-27 04:11:26.380 ,1,1,0.,12.0,0.,12.0,0.,12.0,0.,12.0
1979-07-27 04:11:38.380 ,1,0,0.,12.0,0.,12.0,0.,12.0,0.,12.0
1979-07-27 04:11:50.380 ,1,0,0.,12.0,0.,12.0,0.,12.0,0.,12.0
1979-07-27 04:12:02.380 ,0,1,0.,12.0,0.,12.0,0.,12.0,0.,12.0
1979-07-27 04:12:14.380 ,0,1,0.,12.0,0.,12.0,0.,12.0,0.,12.0
1979-07-27 04:12:26.380 ,0,0,0.,12.0,0.,12.0,0.,12.0,0.,12.0
1979-07-27 04:12:38.380 ,0,0,0.,12.0,0.,12.0,0.,12.0,0.,12.0
1979-07-27 04:12:50.380 ,0,1,0.,12.0,0.,12.0,0.,12.0,0.,12.0
1979-07-27 04:13:02.380 ,0,1,0.,12.0,0.,12.0,0.,12.0,0.,12.0
1979-07-27 04:13:14.380 ,0,0,0.,12.0,0.,12.0,0.,12.0,0.,12.0
1979-07-27 04:13:26.380 ,0,0,0.,12.0,0.,12.0,0.,12.0,0.,12.0
1979-07-27 04:13:38.380 ,1,1,0.,12.0,0.,12.0,0.,12.0,0.,12.0
1979-07-27 04:13:50.380 ,1,1,0.,12.0,0.,12.0,0.,12.0,0.,12.0
1979-07-27 04:14:02.380 ,1,0,0.,12.0,0.,12.0,0.,12.0,0.,12.0
1979-07-27 04:14:14.380 ,1,0,0.,12.0,0.,12.0,0.,12.0,0.,12.0
1979-07-27 04:14:26.380 ,2,1,0.,12.0,0.,12.0,0.,12.0,0.,12.0
1979-07-27 04:14:38.380 ,2,1,0.,12.0,0.,12.0,0.,12.0,0.,12.0
1979-07-27 04:14:50.380 ,2,0,0.,12.0,0.,12.0,0.,12.0,0.,12.0
1979-07-27 04:15:02.380 ,2,0,0.,12.0,0.,12.0,0.,12.0,0.,12.0
1979-07-27 04:15:14.380 ,3,1,0.,12.0,0.,12.0,0.,12.0,0.,12.0
1979-07-27 04:15:26.380 ,3,1,0.,12.0,0.,12.0,0.,12.0,0.,12.0
1979-07-27 04:15:38.380 ,3,0,0.,12.0,0.,12.0,0.,12.0,0.,12.0
1979-07-27 04:15:50.380 ,3,0,0.,12.0,0.,12.0,0.,12.0,0.,12.0
1979-07-27 04:16:02.380 ,4,1,0.,12.0,0.,12.0,0.,12.0,0.,12.0
1979-07-27 04:16:14.380 ,4,1,0.,12.0,0.,12.0,0.,12.0,0.,12.0
1979-07-27 04:16:26.380 ,4,0,0.,12.0,0.,12.0,0.,12.0,0.,12.0
1979-07-27 04:16:38.380 ,4,0,0.,12.0,0.,12.0,0.,12.0,0.,12.0
1979-07-27 04:16:50.380 ,5,1,0.,12.0,0.,12.0,0.,12.0,0.,12.0
1979-07-27 04:17:02.380 ,5,1,0.,12.0,0.,12.0,0.,12.0,0.,12.0
1979-07-27 04:17:14.380 ,5,0,0.,12.0,0.,12.0,0.,12.0,0.,12.0
1979-07-27 04:17:26.380 ,5,0,0.,12.0,0.,12.0,0.,12.0,0.,12.0